GFSNW_925_temp_024.txt.gz
Temp
14 15 16 17 18 18 18 22 21 19 21 22 24 24 26 20 25 25 26 27 27 26 26 25 25 24 23 23 24 23 22 23 21 24 24 24 24 23 23 19 20 20 19 20
14 15 15 17 18 19 20 23 22 20 21 22 22 24 25 26 25 25 25 25 26 26 25 23 24 22 22 23 22 21 22 22 21 22 23 23 23 24 23 21 18 17 17 19
14 15 16 17 18 18 18 24 21 22 22 24 24 24 23 23 24 24 25 25 25 25 24 25 23 21 21 21 20 16 19 23 22 20 22 23 22 23 23 22 18 18 18 20
14 15 16 17 18 18 18 24 23 23 21 23 25 25 25 24 23 24 25 24 25 24 23 23 23 23 21 21 16 20 21 20 21 21 22 22 22 22 22 21 21 19 20 21
14 15 16 17 18 19 19 23 23 23 24 24 24 21 25 25 25 24 24 24 25 25 22 23 23 23 23 22 21 21 21 18 17 18 22 21 20 20 20 21 22 22 20 20
14 15 16 17 18 19 23 22 22 24 19 23 23 23 24 25 24 23 25 25 24 20 22 21 22 22 22 22 21 20 19 18 16 16 16 16 15 18 21 21 21 21 18 20
14 15 16 17 18 19 19 20 23 20 20 23 23 24 25 25 23 23 24 24 20 21 22 21 21 20 20 21 20 21 16 16 13 14 13 15 20 22 22 20 21 21 21 21
14 14 15 17 18 18 19 19 21 19 13 22 23 23 24 23 23 23 21 20 21 22 21 18 16 15 12 15 19 19 19 15 13 14 16 18 19 20 19 18 17 20 19 17
13 14 15 16 17 17 17 17 18 20 14 19 24 23 23 21 21 19 18 19 20 21 17 14 14 17 20 18 17 17 17 16 15 13 12 14 19 20 19 19 16 17 16 15
13 13 14 15 16 17 18 16 17 20 19 21 21 22 21 22 21 19 18 18 17 20 14 12 15 18 20 18 15 12 12 13 13 13 13 15 19 19 18 15 14 15 14 13
12 13 14 15 16 17 17 16 17 18 18 19 20 21 22 21 22 17 19 18 18 16 11 13 15 13 16 17 19 13 12 12 11 13 13 13 19 18 13 15 15 14 13 12
12 12 13 14 15 16 17 18 17 17 19 18 17 16 16 17 19 21 19 20 18 17 15 14 14 10 11 12 17 21 17 16 16 15 15 17 17 16 14 14 13 12 11 12
11 12 12 13 14 16 17 17 16 18 16 17 17 17 16 16 16 17 18 18 20 19 19 13 11 9 13 11 15 17 19 20 16 16 18 19 16 14 13 12 11 11 11 12
11 11 12 13 14 15 15 16 15 16 13 9 16 15 16 14 16 17 17 18 17 18 15 9 8 10 17 13 16 16 18 19 17 17 18 17 13 12 11 12 11 11 13 12
10 11 11 12 13 14 14 14 14 15 17 11 15 16 14 15 15 17 17 17 17 15 10 8 10 14 15 13 12 13 17 16 15 14 15 15 13 11 11 11 12 12 12 12
10 10 11 11 12 13 15 17 14 14 15 12 12 15 15 15 15 16 17 17 17 17 14 10 14 18 15 10 11 16 18 18 18 16 14 13 12 11 12 12 12 12 11 12
9 10 10 11 11 12 13 14 12 13 14 10 10 13 13 13 15 15 15 13 13 14 14 11 12 14 15 9 11 16 17 17 16 15 12 10 11 11 12 12 12 12 11 11
9 9 10 10 11 11 12 12 12 13 14 12 10 10 11 12 10 11 12 10 10 11 11 9 10 12 9 10 13 15 16 16 14 13 13 12 10 12 12 12 11 11 10 10
9 9 9 10 10 11 11 11 12 12 13 12 8 9 9 12 9 8 9 10 9 9 8 8 10 9 10 12 13 14 15 13 13 13 13 12 12 12 11 11 10 10 9 8
8 8 8 5 7 8 10 12 11 11 11 10 9 11 10 12 8 7 8 7 9 9 8 7 6 8 10 13 14 14 13 13 12 11 11 11 10 10 10 10 9 8 7 6
7 4 3 5 6 7 7 8 8 8 8 6 8 10 9 10 9 8 8 8 8 9 9 9 9 9 11 12 12 12 12 11 11 11 11 11 10 9 9 8 7 5 5 4
5 5 5 5 4 4 9 7 5 6 9 5 5 6 8 6 9 8 6 7 7 9 9 8 9 11 12 11 11 11 11 11 10 10 10 9 9 8 6 5 5 4 4 3
5 4 3 4 3 6 7 8 7 7 4 4 4 5 4 4 5 4 5 7 8 7 7 8 11 11 11 11 11 10 9 7 7 8 8 8 7 5 4 3 3 3 2 2
3 4 6 5 6 6 6 6 6 4 5 4 4 4 5 3 5 4 7 6 7 8 8 8 11 11 11 11 10 10 7 3 5 5 5 5 5 4 3 3 3 2 1 1
5 4 6 5 4 3 3 3 4 3 3 4 4 4 5 5 5 5 6 6 7 8 8 7 9 9 9 7 8 7 5 3 3 6 5 5 4 3 3 3 2 2 2 1
6 4 5 4 5 4 3 3 3 3 3 4 5 5 6 6 6 6 7 7 8 7 7 8 7 6 6 6 5 6 6 5 4 4 4 4 4 3 3 2 2 2 1 -0
3 4 4 4 4 4 4 4 4 3 4 5 5 6 5 5 6 6 6 7 6 7 7 6 6 6 6 6 6 6 5 5 5 4 4 4 4 3 3 1 2 2 3 2

GFSNW_925_temp_027.txt.gz
Temp
14 14 15 16 17 17 18 18 17 19 20 17 16 18 23 20 24 24 25 25 25 24 24 23 22 21 21 22 21 21 21 18 15 21 22 23 23 22 20 13 17 12 12 15
14 14 15 16 17 18 19 16 16 19 19 14 13 20 24 24 23 24 24 23 23 24 23 21 20 19 20 20 18 18 19 19 14 18 20 21 22 22 20 16 12 15 10 13
14 14 15 16 17 18 18 16 15 16 16 17 20 21 22 23 22 23 24 23 24 24 22 23 20 19 20 19 19 16 17 20 17 14 19 20 20 20 21 16 11 13 13 17
14 14 15 16 17 18 18 17 17 16 15 17 19 21 21 22 21 23 24 23 23 22 22 21 19 19 19 19 17 19 18 17 18 18 19 20 20 19 19 19 17 15 15 18
14 14 15 16 17 18 18 17 18 19 17 19 21 18 22 21 22 22 22 23 23 21 20 19 19 19 19 19 18 19 17 13 16 16 17 17 17 16 17 18 19 19 18 18
14 15 15 17 17 18 18 21 21 16 15 18 17 19 23 23 21 22 22 21 17 15 18 17 17 17 18 19 18 17 15 12 10 12 13 12 12 16 19 20 19 19 16 17
14 15 15 17 18 18 19 19 18 13 14 17 19 22 22 21 22 20 19 18 16 18 17 16 14 14 15 18 17 16 13 12 8 8 9 11 17 19 19 18 17 17 16 14
14 15 15 16 18 18 19 19 18 11 9 17 20 23 20 18 17 17 17 18 18 17 16 11 13 10 11 14 16 16 15 9 7 10 10 13 16 18 17 16 15 14 14 13
13 14 15 16 17 18 19 18 18 14 10 14 20 21 18 15 15 15 16 17 17 16 8 8 10 11 14 14 15 13 13 10 9 7 9 9 13 17 18 18 10 13 12 11
13 14 15 16 16 17 18 17 18 17 12 16 17 17 17 17 16 13 15 16 16 14 7 9 9 11 15 13 12 9 7 10 9 6 8 10 14 17 18 13 11 12 11 10
13 13 14 15 16 17 18 17 17 17 12 15 16 15 17 18 14 12 14 12 11 8 10 9 8 9 10 13 14 11 9 8 8 10 11 9 16 16 13 11 11 10 10 10
12 13 14 15 16 17 17 17 17 18 13 14 16 16 16 16 16 15 15 14 14 11 9 8 8 9 9 9 11 15 12 11 9 10 10 13 14 14 12 11 10 10 10 10
12 12 13 14 16 16 17 16 16 17 10 12 14 14 16 17 17 18 13 12 16 14 12 9 10 9 8 8 9 15 15 15 10 12 15 14 11 11 10 10 10 11 10 10
11 12 13 14 15 15 16 16 15 15 9 7 12 15 15 15 16 17 18 16 15 12 9 7 8 7 11 8 11 10 13 14 15 12 15 12 12 11 10 9 10 10 11 11
11 11 12 13 14 14 15 15 14 15 14 8 8 15 14 15 16 17 17 16 13 10 7 7 7 6 9 5 7 8 14 13 10 9 13 13 10 9 10 10 10 10 10 10
10 11 12 12 13 14 14 12 14 15 15 9 8 13 13 15 15 16 16 14 12 11 8 6 8 13 9 9 9 12 14 15 14 12 10 10 9 10 11 11 10 10 11 10
10 10 11 12 12 14 12 11 12 13 14 6 7 10 10 12 13 11 11 11 10 11 9 7 6 8 9 7 9 11 13 16 12 11 10 9 10 9 11 11 11 11 10 9
10 10 11 11 12 12 12 12 12 13 12 8 8 8 6 11 6 7 8 6 8 9 8 7 7 7 6 9 10 12 13 14 12 11 11 10 10 11 11 10 10 8 7 7
9 10 11 11 11 11 10 11 12 12 12 7 6 6 7 8 6 5 6 7 7 7 6 6 8 7 9 10 10 12 12 11 10 11 11 10 10 10 9 8 7 6 5 5
8 9 9 5 7 8 10 11 6 7 7 7 6 6 8 8 5 5 6 4 7 8 7 6 6 7 8 9 11 11 11 11 11 10 9 8 8 7 7 7 6 5 4 4
8 5 3 5 7 8 5 6 8 7 7 6 6 6 8 7 6 6 5 6 6 8 6 7 8 8 8 9 10 9 10 10 10 9 9 9 8 7 6 5 4 4 4 3
6 6 5 6 5 4 7 7 5 7 7 5 5 5 6 4 7 6 5 7 6 8 7 7 8 7 9 9 9 9 9 9 9 9 8 7 6 6 5 4 4 4 3 3
6 5 3 5 3 6 7 8 6 6 4 4 4 5 3 4 4 4 5 7 7 5 7 6 5 10 9 9 7 7 6 6 6 6 6 6 5 5 5 4 3 3 2 3
3 4 5 5 6 5 5 5 5 3 3 3 3 4 4 3 5 4 6 5 5 7 6 5 6 8 9 8 7 6 4 3 4 5 5 5 5 5 4 3 3 2 2 2
4 4 5 4 3 3 3 3 3 2 2 3 3 3 4 4 5 4 5 5 7 6 7 5 4 5 5 4 4 4 3 1 3 4 4 4 4 3 3 3 3 3 2 2
3 4 4 3 4 4 3 3 3 2 2 2 3 4 5 5 5 5 6 6 6 6 4 4 4 4 4 4 3 4 4 4 4 4 4 4 4 4 3 3 3 3 2 1
4 4 3 3 3 4 3 3 3 3 3 4 4 5 4 3 5 5 5 5 4 4 3 2 4 4 4 4 4 5 4 4 4 4 4 3 4 3 3 2 3 3 3 2

GFSNW_925_temp_030.txt.gz
Temp
14 14 15 16 17 17 17 15 15 18 19 15 12 16 20 22 23 23 23 23 22 22 22 21 19 19 20 19 20 20 19 16 15 20 22 22 22 20 17 12 17 11 11 14
14 14 15 16 17 17 18 14 14 18 19 13 11 17 22 23 23 23 24 23 22 22 21 18 19 19 18 18 18 18 19 16 13 16 18 19 21 21 17 14 11 14 10 13
13 14 15 16 17 17 17 13 13 14 13 13 17 20 21 21 21 23 22 23 22 21 20 19 18 18 18 18 18 15 17 17 16 15 18 18 20 20 17 15 11 13 12 16
13 14 15 16 17 17 16 14 15 15 14 15 18 19 20 21 21 22 22 22 22 21 20 19 17 18 18 18 16 19 16 16 17 17 17 18 19 18 17 17 15 14 15 15
13 13 15 16 17 17 17 16 16 14 14 17 18 16 19 20 21 22 22 22 20 19 18 18 17 17 17 17 18 18 15 13 15 16 15 14 16 16 15 16 17 17 15 13
13 14 15 16 17 17 17 18 17 15 13 15 16 16 19 19 20 20 19 17 15 14 17 15 14 15 16 17 17 15 14 11 10 12 11 12 12 16 18 19 17 17 15 13
13 14 15 16 17 18 18 17 15 13 13 15 16 20 21 19 20 17 18 17 16 17 15 15 14 13 14 15 14 15 12 9 6 8 8 11 15 16 17 14 14 13 13 12
13 14 15 16 17 18 18 18 16 11 8 14 19 19 16 16 15 15 15 15 16 14 14 10 13 9 11 12 13 13 13 7 7 7 9 12 16 16 16 15 13 13 12 11
13 14 15 16 17 18 18 17 17 12 10 13 17 16 16 14 14 13 15 15 15 12 6 8 10 11 14 13 14 12 11 8 7 7 8 9 13 16 16 15 11 12 11 10
13 14 15 16 17 18 19 17 18 16 11 14 16 15 16 14 12 11 14 16 15 11 5 8 7 11 13 12 11 9 7 6 7 3 5 8 12 15 16 12 12 11 10 9
13 14 15 16 17 18 19 16 17 17 10 13 13 14 16 14 13 11 13 12 10 8 8 7 9 6 9 11 12 10 9 8 7 6 5 9 13 15 13 11 10 9 9 9
13 14 15 16 17 18 18 17 17 17 12 13 15 15 15 15 16 12 12 13 12 10 8 7 9 6 8 8 10 13 13 10 10 10 10 12 13 14 12 10 9 9 9 8
12 13 14 15 16 17 18 16 16 17 8 11 13 13 16 17 16 17 13 9 13 12 9 7 6 7 7 8 8 12 13 12 9 11 14 12 12 10 10 10 9 9 9 9
12 13 14 14 16 17 17 16 15 15 7 6 11 15 14 15 17 17 17 14 12 9 7 6 8 6 9 7 9 8 11 13 13 10 12 11 11 10 9 9 9 10 10 10
12 13 13 14 15 15 16 15 14 15 13 8 7 13 14 15 16 16 16 14 11 8 6 6 7 4 7 5 5 8 12 13 9 9 12 11 10 8 9 9 10 10 9 7
11 12 13 14 14 15 15 11 14 14 14 7 8 9 11 13 14 13 12 12 10 9 7 6 7 10 8 8 8 10 12 13 13 12 11 11 8 8 10 11 10 9 8 7
11 11 12 13 14 15 12 10 11 13 14 6 7 7 8 11 11 9 9 10 9 9 6 6 5 6 8 7 8 11 11 12 11 10 9 9 9 9 10 10 9 8 7 7
10 11 11 12 13 13 12 11 12 13 12 6 6 6 6 9 5 6 6 5 7 8 8 6 7 6 5 9 9 11 12 12 9 9 10 9 10 10 9 8 8 6 5 5
10 11 12 12 12 10 10 11 12 12 11 6 4 7 8 7 6 4 5 6 6 5 6 6 6 7 8 10 10 10 10 10 9 9 10 10 10 9 8 7 6 5 4 4
10 11 10 6 7 8 10 11 6 5 6 4 5 5 6 7 4 5 5 4 6 8 6 6 6 8 7 7 9 9 9 9 10 9 8 7 7 6 6 6 5 5 4 4
9 5 4 6 8 9 5 6 6 6 7 5 5 5 7 5 6 6 4 5 6 8 6 7 7 7 7 7 7 7 8 8 9 8 7 7 6 5 5 4 4 4 4 3
7 6 6 7 5 4 6 7 5 6 7 4 5 5 6 4 5 5 5 7 5 7 5 7 7 7 7 7 7 7 7 7 6 5 4 5 5 5 4 4 3 3 3 3
7 5 3 5 3 7 8 9 6 6 4 4 4 5 3 4 4 4 5 7 7 5 7 7 5 8 7 6 6 6 5 4 4 5 5 5 5 5 5 4 4 3 3 3
3 5 5 5 5 5 4 5 5 3 3 3 3 3 4 3 5 4 6 5 5 7 4 3 5 6 6 6 5 5 3 2 3 4 4 4 4 4 4 4 3 2 2 3
4 3 5 4 3 2 2 2 3 2 2 3 3 3 4 4 5 4 4 5 6 6 6 5 3 4 4 3 3 3 2 1 3 3 3 4 4 3 3 3 3 3 2 2
3 4 4 3 4 3 3 3 3 2 2 2 3 4 5 4 4 5 6 6 5 4 4 3 3 3 3 2 2 3 3 4 3 3 3 3 3 3 2 3 3 3 3 2
4 3 2 3 3 3 3 2 2 2 3 4 4 3 3 3 3 4 4 4 4 3 3 3 3 3 3 3 3 4 3 3 3 3 3 2 3 3 2 2 3 3 3 2

GFSNW_925_temp_033.txt.gz
Temp
13 14 14 15 16 17 16 14 15 17 17 14 11 15 18 20 22 21 22 22 22 20 21 19 19 19 19 17 19 19 18 15 14 20 19 20 20 19 16 12 16 10 10 13
13 14 14 15 16 17 17 13 13 17 17 12 10 16 20 21 22 22 22 22 21 21 18 18 18 18 18 17 18 18 18 15 13 16 17 18 20 19 14 12 10 13 10 13
13 14 14 15 16 17 18 12 13 13 12 12 16 19 20 21 21 22 21 21 20 20 18 17 17 18 18 18 17 15 16 15 15 14 17 17 19 19 16 15 11 12 11 16
13 14 14 16 16 17 17 12 14 14 13 14 16 18 20 20 21 22 21 21 21 20 19 18 16 17 18 18 16 16 15 15 16 15 15 17 18 18 15 15 14 14 14 14
13 13 14 16 16 16 16 13 14 12 13 15 16 16 18 19 20 21 21 20 18 20 18 18 16 16 17 18 17 16 13 12 15 16 13 13 16 16 15 14 15 14 13 13
13 13 15 16 16 16 15 15 15 13 11 13 14 14 18 19 19 18 18 17 15 15 16 15 14 14 14 16 16 14 13 10 10 12 10 11 11 14 15 16 16 14 12 13
13 14 15 16 16 17 18 16 14 12 11 13 15 17 19 18 19 17 17 16 16 17 13 14 14 12 12 13 12 13 11 8 5 8 8 11 15 14 15 16 14 13 12 11
13 14 15 16 17 18 17 18 14 11 7 13 17 16 15 14 14 14 15 14 14 13 12 10 13 9 11 11 11 11 11 7 6 7 9 12 16 14 14 15 14 12 11 10
13 14 14 15 17 18 17 18 16 12 11 13 16 15 15 13 13 13 15 14 13 11 6 8 10 12 14 13 13 11 9 7 8 6 8 9 13 15 15 15 12 11 11 9
13 14 15 16 17 18 17 16 16 15 11 12 15 14 14 12 12 11 14 16 14 11 4 5 8 11 12 12 11 8 7 5 7 2 5 9 11 14 15 13 12 10 10 9
13 14 15 16 18 18 19 15 17 17 10 12 13 13 14 13 12 11 12 12 10 6 8 6 7 5 9 10 12 10 9 8 7 5 6 11 11 14 13 11 10 10 9 8
13 14 15 16 17 17 18 16 16 17 11 12 14 14 14 14 15 11 11 13 11 10 7 5 7 5 8 7 10 11 11 10 9 10 10 12 11 13 12 10 9 8 8 8
13 14 15 16 17 18 19 16 16 17 8 11 12 12 15 16 16 16 12 8 11 10 8 7 5 8 6 8 8 11 11 11 9 11 13 11 11 11 10 10 9 8 9 9
13 14 15 16 17 18 18 17 15 16 6 7 10 14 14 14 16 17 16 12 10 7 6 4 5 5 8 6 8 8 10 11 11 9 11 11 10 9 9 9 8 9 9 9
13 14 14 15 16 17 17 16 13 15 13 8 7 12 13 13 15 14 14 12 9 7 6 5 7 4 6 5 5 7 10 11 9 10 11 11 11 9 8 8 8 9 8 7
12 13 14 14 15 16 17 10 14 14 14 8 8 8 9 11 12 12 11 11 9 7 6 5 6 8 7 7 9 10 11 11 11 12 11 10 9 7 8 9 9 9 7 7
12 13 14 14 15 15 11 10 10 13 14 6 7 6 7 9 9 7 8 8 8 8 7 5 6 5 7 6 8 11 11 11 11 10 9 9 8 8 9 9 8 7 6 6
11 12 13 13 14 13 12 11 12 13 11 5 6 5 6 8 5 6 5 5 6 6 7 6 6 6 5 8 9 10 10 10 10 8 9 9 8 8 7 7 7 5 4 4
11 12 13 13 13 9 10 11 12 13 11 5 4 7 8 5 5 4 5 5 7 5 6 6 6 6 8 9 9 9 9 10 10 9 8 8 8 7 6 5 4 4 4 4
11 12 11 6 7 8 10 12 5 4 3 4 5 5 7 7 4 5 4 4 6 6 6 6 6 7 7 6 6 7 8 8 8 7 6 6 6 5 5 4 5 4 4 3
10 5 4 7 8 9 4 5 5 6 7 5 5 4 7 5 6 5 3 5 5 8 5 7 6 7 6 5 5 5 6 6 6 6 5 4 3 2 3 4 3 3 3 3
8 7 7 8 4 4 7 7 5 6 7 4 6 5 5 4 4 5 5 7 5 7 5 7 7 6 6 6 4 4 5 4 4 3 3 3 3 4 4 3 3 3 3 2
8 6 4 6 4 8 8 8 7 6 4 4 4 5 3 4 4 4 5 7 7 4 7 7 6 5 4 4 4 3 4 3 3 4 4 4 4 4 4 3 3 3 3 2
4 5 6 6 5 5 5 5 5 3 3 3 3 4 4 3 5 4 7 5 5 7 5 3 5 4 4 4 3 3 2 1 2 3 3 3 4 3 3 3 3 2 2 2
3 4 5 4 3 2 2 2 3 2 2 3 3 3 4 4 5 4 4 5 5 4 4 4 2 2 3 2 2 2 2 1 2 3 3 3 3 2 2 3 2 2 2 2
3 3 3 2 3 3 3 3 3 2 2 2 3 4 5 4 4 4 5 5 3 1 3 2 2 2 2 2 2 2 3 2 2 2 2 2 2 2 2 3 3 3 2 2
4 3 2 2 2 3 3 2 2 2 3 4 3 1 3 3 3 4 4 4 3 3 3 2 2 3 2 2 2 4 3 3 3 3 3 3 3 2 2 1 3 3 3 2